Flag for Iran Weather past 2 weeks in Rafsanjan, Iran

Now
90 °F

Passing clouds.


Feels Like: 86 °F
Forecast: 67 / 89 °F
Wind: 9 mph from Northwest

Location: Kerman Airport

Current Time: May 27, 2015 at 5:32:32 PM

Latest Report: May 27, 2015 at 4:30 PM


Visibility: N/A

Pressure: 29.95 "Hg

Humidity: 6%

Dew point: 14 °F

Location of RafsanjanLocation

Historic Weather in Rafsanjan — Graph

°F

Rafsanjan temperature yesterday

Maximum temperature yesterday: 93 °F (at 3:20 PM)
Minimum temperature yesterday: 59 °F (at 6:30 AM)
Average temperature yesterday: 80 °F

Past Weeks' High & Low Weather Summary

 TemperatureHumidityPressure
High97 °F (May 15, 4:30 PM)60% (May 16, 10:30 AM)30.45 "Hg (May 16, 10:30 AM)
Low52 °F (May 19, 5:30 AM)2% (May 17, 4:30 PM)29.95 "Hg (May 26, 3:20 PM)
Average78 °F15%30.10 "Hg
* Reported May 12 4:30 PM — May 27 4:30 PM, Rafsanjan, Weather by CustomWeather, © 2015

Note: Actual official high and low records may vary slightly from our data, if they occured in-between our weather recording intervals... More about our weather records

Advertising

Rafsanjan weather history for previous 24 hours

 ConditionsComfort  
Time TempWeatherWind HumidityBarometerVisibility
4:30 PM
Wed, May 27
90 °FPassing clouds.9 mph6%29.95 "HgN/A
3:30 PM91 °FPassing clouds.7 mph5%29.95 "HgN/A
3:00 PM93 °FPassing clouds.7 mph4%29.95 "HgN/A
2:30 PM90 °FPassing clouds.7 mph5%29.98 "HgN/A
2:00 PM88 °FPassing clouds.9 mph6%29.98 "HgN/A
1:30 PM90 °FPassing clouds.7 mph6%30.01 "HgN/A
1:00 PM88 °FPassing clouds.7 mph6%30.01 "HgN/A
12:30 PM88 °FPassing clouds.9 mph6%30.04 "HgN/A
12:00 PM86 °FSunny.7 mph7%30.04 "Hg10 mi
11:30 AM84 °FSunny.5 mph7%30.04 "Hg10 mi
11:00 AM84 °FSunny.7 mph8%30.04 "Hg10 mi
10:00 AM84 °FSunny.5 mph8%30.07 "Hg10 mi
9:20 AM82 °FSunny.5 mph7%30.07 "Hg10 mi
9:00 AM79 °FSunny.5 mph9%30.07 "Hg10 mi
8:30 AM77 °FSunny.No wind10%30.07 "Hg10 mi
8:00 AM75 °FSunny.No wind11%30.04 "Hg10 mi
7:30 AM66 °FSunny.7 mph19%30.04 "Hg10 mi
6:30 AM61 °FClear.7 mph20%30.01 "Hg10 mi
4:30 AM63 °FClear.7 mph16%30.01 "Hg10 mi
3:30 AM66 °FClear.5 mph14%30.01 "Hg10 mi
2:30 AM66 °FClear.5 mph14%30.01 "Hg10 mi
1:30 AM70 °FClear.9 mph13%30.01 "Hg10 mi
12:30 AM72 °FClear.12 mph14%30.01 "Hg10 mi
11:30 PM
Tue, May 26
73 °FClear.12 mph13%30.01 "Hg10 mi
10:30 PM75 °FClear.7 mph14%30.01 "Hg10 mi
9:30 PM82 °FPassing clouds.7 mph11%30.01 "HgN/A
8:30 PM84 °FScattered clouds.No wind10%29.98 "HgN/A
7:30 PM86 °FScattered clouds.9 mph9%29.95 "HgN/A
6:30 PM90 °FScattered clouds.16 mph6%29.95 "HgN/A
6:00 PM91 °FScattered clouds.12 mph6%29.95 "HgN/A
5:30 PM91 °FScattered clouds.12 mph6%29.95 "HgN/A
5:00 PM93 °FScattered clouds.14 mph6%29.95 "HgN/A
Weather by CustomWeather, © 2015

See weather overviewHow to use our weather pages